Weather History for Moab, UT

Change the Weather History Date:

Sunday, July 21, 2013

  Actual Average Record
Temperature  
Mean Temperature 88 °F 81 °F  
Max Temperature 101 °F 96 °F 108 °F (1953)
Min Temperature 75 °F 66 °F 51 °F (1950)
Degree Days  
Heating Degree Days 0 0  
Month to date heating degree days 0 0  
Since 1 June heating degree days 0 17  
Since 1 July heating degree days 0 0  
Cooling Degree Days 23 16  
Month to date cooling degree days 418 315  
Year to date cooling degree days 899 634  
Since 1 June cooling degree days 819 570  
Growing Degree Days 38 (Base 50)    
Moisture  
Dew Point 42 °F    
Average Humidity 23    
Maximum Humidity 38    
Minimum Humidity 8    
Precipitation  
Precipitation 0.00 in 0.03 in 0.08 in (1979)
Month to date precipitation 0.18 0.51  
Year to date precipitation 1.90 4.21  
Sea Level Pressure  
Sea Level Pressure 29.70 in    
Wind  
Wind Speed 7 mph (SE)    
Max Wind Speed 24 mph    
Max Gust Speed 28 mph    
Visibility 10 miles    
Events      
T = Trace of Precipitation, MM = Missing Value Source: NWS Daily Summary

Daily Weather History Graph

Daily Weather History Graph

Search for Another Location

Airport:

Trip Planner

Search our weather history database for the weather conditions in past years. The results will help you decide how hot, cold, wet, or windy it might be!

Date:

Astronomy

Jul. 21, 2013 Rise Set
Actual Time 6:11 AM MDT 8:39 PM MDT
Civil Twilight 5:40 AM MDT 9:09 PM MDT
Nautical Twilight 5:02 AM MDT 9:47 PM MDT
Astronomical Twilight 4:20 AM MDT 10:29 PM MDT
Moon 7:40 PM MDT (7/21) 5:00 AM MDT (7/21)
Length of Visible Light 15h 28m
Length of Day
14h 27m
Waxing Gibbous, 98% of the Moon is Illuminated
Jul 21
Waxing Gibbous
Jul 22
Full
Jul 29
Last Quarter
Aug 6
New
Aug 14
First Quarter

Hourly Weather History & Observations

Time (MDT) Temp. Dew Point Humidity Pressure Visibility Wind Dir Wind Speed Gust Speed Precip Events Conditions
12:53 AM 77.0 °F 30.9 °F 19% 29.68 in 10.0 mi Calm Calm - N/A   Clear
1:53 AM 79.0 °F 37.9 °F 23% 29.68 in 10.0 mi Calm Calm - N/A   Clear
2:53 AM 79.0 °F 43.0 °F 28% 29.67 in 10.0 mi SE 11.5 mph - N/A   Clear
3:53 AM 80.1 °F 46.0 °F 30% 29.66 in 10.0 mi SE 12.7 mph - N/A   Clear
4:53 AM 79.0 °F 46.9 °F 32% 29.68 in 10.0 mi SE 11.5 mph - N/A   Clear
5:53 AM 78.1 °F 48.0 °F 35% 29.70 in 10.0 mi SE 11.5 mph - N/A   Clear
6:53 AM 75.9 °F 48.0 °F 37% 29.72 in 10.0 mi ESE 4.6 mph - N/A   Clear
7:53 AM 81.0 °F 48.9 °F 33% 29.73 in 10.0 mi ESE 8.1 mph - N/A   Clear
8:53 AM 84.0 °F 48.9 °F 29% 29.75 in 10.0 mi ESE 9.2 mph - N/A   Clear
9:53 AM 84.9 °F 48.9 °F 29% 29.77 in 10.0 mi Variable 6.9 mph - N/A   Clear
10:53 AM 89.1 °F 48.0 °F 24% 29.75 in 10.0 mi ESE 6.9 mph - N/A   Clear
11:53 AM 91.0 °F 48.0 °F 23% 29.75 in 10.0 mi SSE 6.9 mph - N/A   Clear
12:53 PM 95.0 °F 46.9 °F 19% 29.73 in 10.0 mi Variable 4.6 mph - N/A   Clear
1:53 PM 97.0 °F 45.0 °F 17% 29.69 in 10.0 mi Calm Calm - N/A   Clear
2:53 PM 98.1 °F 36.0 °F 11% 29.67 in 10.0 mi Variable 6.9 mph - N/A   Clear
3:53 PM 98.1 °F 34.0 °F 11% 29.65 in 10.0 mi Variable 3.5 mph - N/A   Clear
4:53 PM 100.0 °F 30.9 °F 9% 29.63 in 10.0 mi ENE 5.8 mph - N/A   Clear
5:53 PM 99.0 °F 28.9 °F 8% 29.63 in 10.0 mi Calm Calm - N/A   Clear
6:53 PM 98.1 °F 39.0 °F 13% 29.63 in 10.0 mi South 13.8 mph 19.6 mph N/A   Clear
7:06 PM 98.6 °F 37.4 °F 12% 29.85 in 10.0 mi SSE 12.7 mph - N/A   Clear
7:53 PM 96.1 °F 37.9 °F 13% 29.63 in 10.0 mi SSE 9.2 mph - N/A   Clear
8:53 PM 91.9 °F 37.9 °F 15% 29.65 in 10.0 mi South 9.2 mph - N/A   Clear
9:53 PM 90.0 °F 36.0 °F 15% 29.69 in 10.0 mi South 12.7 mph - N/A   Clear
10:53 PM 88.0 °F 46.0 °F 23% 29.72 in 10.0 mi SSW 11.5 mph - N/A   Clear
11:53 PM 86.0 °F 45.0 °F 24% 29.73 in 10.0 mi WSW 8.1 mph - N/A   Clear